Time,TemperatureF,DewpointF,PressureIn,WindDirection,WindDirectionDegrees,WindSpeedMPH,WindSpeedGustMPH,Humidity,HourlyPrecipIn,Conditions,Clouds,dailyrainin,SoftwareType,DateUTC
2013-03-23 00:22:00,68.0,39.0,29.76,NW,310,16.0,18.0,34,0.00,,,-99.99,,2013-03-23 07:22:00,
2013-03-23 00:42:00,66.0,39.0,29.76,NW,310,19.0,24.0,37,0.00,,,-99.99,,2013-03-23 07:42:00,
2013-03-23 01:22:00,66.0,39.0,29.76,NW,310,19.0,24.0,37,0.00,,,-99.99,,2013-03-23 08:22:00,
2013-03-23 01:32:00,66.0,39.0,29.76,NW,310,19.0,24.0,37,0.00,,,-99.99,,2013-03-23 08:32:00,
2013-03-23 02:22:00,63.0,36.0,29.78,NW,310,9.0,26.0,36,0.00,,,-99.99,,2013-03-23 09:22:00,
2013-03-23 02:33:00,63.0,36.0,29.78,NW,310,9.0,26.0,36,0.00,,,-99.99,,2013-03-23 09:33:00,
2013-03-23 02:42:00,63.0,36.0,29.78,NW,310,9.0,26.0,36,0.00,,,-99.99,,2013-03-23 09:42:00,
2013-03-23 03:23:00,63.0,24.0,29.78,NW,310,14.0,28.0,22,0.00,,,-99.99,,2013-03-23 10:23:00,
2013-03-23 03:33:00,63.0,24.0,29.78,NW,310,14.0,28.0,22,0.00,,,-99.99,,2013-03-23 10:33:00,
2013-03-23 04:22:00,64.0,24.0,29.78,WNW,300,4.0,8.0,22,0.00,,,-99.99,,2013-03-23 11:22:00,
2013-03-23 04:32:00,64.0,24.0,29.78,WNW,300,4.0,8.0,22,0.00,,,-99.99,,2013-03-23 11:32:00,
2013-03-23 05:22:00,63.0,26.0,29.80,NNW,330,3.0,8.0,24,0.00,,,-99.99,,2013-03-23 12:22:00,
2013-03-23 05:33:00,63.0,26.0,29.80,NNW,330,3.0,8.0,24,0.00,,,-99.99,,2013-03-23 12:33:00,
2013-03-23 05:42:00,63.0,26.0,29.80,NNW,330,3.0,8.0,24,0.00,,,-99.99,,2013-03-23 12:42:00,
2013-03-23 06:22:00,66.0,3.0,29.83,NNE,30,5.0,13.0,8,0.00,,,-99.99,,2013-03-23 13:22:00,
2013-03-23 06:32:00,66.0,3.0,29.83,NNE,30,5.0,13.0,8,0.00,,,-99.99,,2013-03-23 13:32:00,
2013-03-23 07:22:00,68.0,-2.0,29.85,NNE,30,8.0,23.0,6,0.00,,,-99.99,,2013-03-23 14:22:00,
2013-03-23 07:32:00,68.0,-2.0,29.85,NNE,30,8.0,23.0,6,0.00,,,-99.99,,2013-03-23 14:32:00,
2013-03-23 08:22:00,68.0,5.0,29.88,NE,40,10.0,31.0,8,0.00,,,-99.99,,2013-03-23 15:22:00,
2013-03-23 08:33:00,68.0,5.0,29.88,NE,40,10.0,31.0,8,0.00,,,-99.99,,2013-03-23 15:33:00,
2013-03-23 09:23:00,70.0,3.0,29.91,NE,40,28.0,37.0,7,0.00,,,-99.99,,2013-03-23 16:23:00,
2013-03-23 09:32:00,70.0,3.0,29.91,NE,40,28.0,37.0,7,0.00,,,-99.99,,2013-03-23 16:32:00,
2013-03-23 10:22:00,72.0,5.0,29.95,ENE,60,2.0,5.0,7,0.00,,,-99.99,,2013-03-23 17:22:00,
2013-03-23 10:32:00,72.0,5.0,29.95,ENE,60,2.0,5.0,7,0.00,,,-99.99,,2013-03-23 17:32:00,
2013-03-23 11:22:00,74.0,6.0,29.96,East,100,4.0,15.0,7,0.00,,,-99.99,,2013-03-23 18:22:00,
2013-03-23 11:32:00,74.0,6.0,29.96,East,100,4.0,15.0,7,0.00,,,-99.99,,2013-03-23 18:32:00,
2013-03-23 11:42:00,74.0,6.0,29.96,East,100,4.0,15.0,7,0.00,,,-99.99,,2013-03-23 18:42:00,
2013-03-23 12:22:00,75.0,3.0,29.95,East,100,10.0,18.0,6,0.00,,,-99.99,,2013-03-23 19:22:00,
2013-03-23 12:32:00,75.0,3.0,29.95,East,100,10.0,18.0,6,0.00,,,-99.99,,2013-03-23 19:32:00,
2013-03-23 12:42:00,75.0,3.0,29.95,East,100,10.0,18.0,6,0.00,,,-99.99,,2013-03-23 19:42:00,
2013-03-23 13:22:00,76.0,7.0,29.94,East,90,11.0,14.0,7,0.00,,,-99.99,,2013-03-23 20:22:00,
2013-03-23 13:32:00,76.0,7.0,29.94,East,90,11.0,14.0,7,0.00,,,-99.99,,2013-03-23 20:32:00,
2013-03-23 13:42:00,76.0,7.0,29.94,East,90,11.0,14.0,7,0.00,,,-99.99,,2013-03-23 20:42:00,
2013-03-23 13:43:00,78.0,2.0,29.93,ESE,120,2.0,11.0,5,0.00,,,-99.99,,2013-03-23 20:43:00,
2013-03-23 14:22:00,78.0,2.0,29.93,ESE,120,2.0,11.0,5,0.00,,,-99.99,,2013-03-23 21:22:00,
2013-03-23 14:32:00,78.0,2.0,29.93,ESE,120,2.0,11.0,5,0.00,,,-99.99,,2013-03-23 21:32:00,
2013-03-23 15:23:00,78.0,2.0,29.90,SE,140,3.0,11.0,5,0.00,,,-99.99,,2013-03-23 22:23:00,
2013-03-23 15:32:00,78.0,2.0,29.90,SE,140,3.0,11.0,5,0.00,,,-99.99,,2013-03-23 22:32:00,
2013-03-23 15:42:00,78.0,2.0,29.90,SE,140,3.0,11.0,5,0.00,,,-99.99,,2013-03-23 22:42:00,
2013-03-23 16:22:00,80.0,3.0,29.87,SW,230,15.0,21.0,5,0.00,,,-99.99,,2013-03-23 23:22:00,
2013-03-23 16:32:00,80.0,3.0,29.87,SW,230,15.0,21.0,5,0.00,,,-99.99,,2013-03-23 23:32:00,
2013-03-23 16:42:00,80.0,3.0,29.87,SW,230,15.0,21.0,5,0.00,,,-99.99,,2013-03-23 23:42:00,
2013-03-23 17:22:00,78.0,9.0,29.86,SE,140,15.0,28.0,7,0.00,,,-99.99,,2013-03-24 00:22:00,
2013-03-23 17:32:00,78.0,9.0,29.86,SE,140,15.0,28.0,7,0.00,,,-99.99,,2013-03-24 00:32:00,
2013-03-23 17:42:00,78.0,9.0,29.86,SE,140,15.0,28.0,7,0.00,,,-99.99,,2013-03-24 00:42:00,
2013-03-23 18:22:00,76.0,7.0,29.88,SSE,150,11.0,24.0,7,0.00,,,-99.99,,2013-03-24 01:22:00,
2013-03-23 18:32:00,76.0,7.0,29.88,SSE,150,11.0,24.0,7,0.00,,,-99.99,,2013-03-24 01:32:00,
2013-03-23 18:42:00,76.0,7.0,29.88,SSE,150,11.0,24.0,7,0.00,,,-99.99,,2013-03-24 01:42:00,
2013-03-23 19:22:00,73.0,8.0,29.88,SSE,150,8.0,20.0,8,0.00,,,-99.99,,2013-03-24 02:22:00,
2013-03-23 19:32:00,73.0,8.0,29.88,SSE,150,8.0,20.0,8,0.00,,,-99.99,,2013-03-24 02:32:00,
2013-03-23 19:42:00,73.0,8.0,29.88,SSE,150,8.0,20.0,8,0.00,,,-99.99,,2013-03-24 02:42:00,
2013-03-23 20:22:00,71.0,9.0,29.90,SE,140,2.0,6.0,9,0.00,,,-99.99,,2013-03-24 03:22:00,
2013-03-23 20:33:00,71.0,9.0,29.90,SE,140,2.0,6.0,9,0.00,,,-99.99,,2013-03-24 03:33:00,
2013-03-23 20:42:00,71.0,9.0,29.90,SE,140,2.0,6.0,9,0.00,,,-99.99,,2013-03-24 03:42:00,
2013-03-23 21:22:00,70.0,9.0,29.91,SE,140,5.0,9.0,9,0.00,,,-99.99,,2013-03-24 04:22:00,
2013-03-23 21:32:00,70.0,9.0,29.91,SE,140,5.0,9.0,9,0.00,,,-99.99,,2013-03-24 04:32:00,
2013-03-23 21:42:00,70.0,9.0,29.91,SE,140,5.0,9.0,9,0.00,,,-99.99,,2013-03-24 04:42:00,
2013-03-23 22:22:00,69.0,8.0,29.92,SE,130,5.0,8.0,9,0.00,,,-99.99,,2013-03-24 05:22:00,
2013-03-23 22:32:00,69.0,8.0,29.92,SE,130,5.0,8.0,9,0.00,,,-99.99,,2013-03-24 05:32:00,
2013-03-23 22:42:00,69.0,8.0,29.92,SE,130,5.0,8.0,9,0.00,,,-99.99,,2013-03-24 05:42:00,
2013-03-23 23:22:00,66.0,8.0,29.94,North,-999,0.0,0.0,10,0.00,,,-99.99,,2013-03-24 06:22:00,
2013-03-23 23:32:00,66.0,8.0,29.94,North,-999,0.0,0.0,10,0.00,,,-99.99,,2013-03-24 06:32:00,
2013-03-23 23:42:00,66.0,8.0,29.94,North,-999,0.0,0.0,10,0.00,,,-99.99,,2013-03-24 06:42:00,